FW8483 Weather Reports


Display with metric or nautical units.
time (UTC)temp
F
wind
direction
speed
MPH
gust
MPH
rain 1hr
in
rain 24hr
in
rain mn
in
humidity
%
barometer
mb
20260507012509 76 170 3.0 7.0 0.00 0.00 0.00 67 1013.6
20260507012007 76 184 2.0 7.0 0.00 0.00 0.00 67 1013.8
20260507011535 76 180 4.0 6.0 0.00 0.00 0.00 67 1014.1
20260507011002 76 180 3.0 5.0 0.00 0.00 0.00 67 1014.2
20260507010503 77 186 2.0 4.0 0.00 0.00 0.00 67 1014.2
20260507010010 77 212 2.0 6.0 0.00 0.00 0.00 67 1014.1
20260507005504 77 193 2.0 6.0 0.00 0.00 0.00 67 1014.0
20260507005003 77 198 2.0 8.0 0.00 0.00 0.00 67 1013.8
20260507004507 77 172 5.0 8.0 0.00 0.00 0.00 68 1013.7
20260507004005 77 202 4.0 6.0 0.00 0.00 0.00 68 1013.8
20260507003505 78 184 3.0 6.0 0.00 0.00 0.00 69 1013.8
20260507003017 78 205 2.0 5.0 0.00 0.00 0.00 69 1014.1
20260507002504 78 202 2.0 5.0 0.00 0.00 0.00 70 1014.1
20260507002007 78 181 2.0 8.0 0.00 0.00 0.00 69 1014.0
20260507001519 79 236 3.0 8.0 0.00 0.00 0.00 70 1014.1
20260507001006 79 193 1.0 8.0 0.00 0.00 0.00 69 1014.1
20260507000508 79 199 2.0 9.0 0.00 0.00 0.00 69 1014.0
20260507000004 79 179 3.0 9.0 0.00 0.00 0.00 69 1013.9
20260506235504 79 254 2.0 11.0 0.00 0.00 0.00 68 1013.8
20260506235003 80 181 4.0 11.0 0.00 0.00 0.00 68 1013.6
20260506234528 80 178 6.0 10.0 0.00 0.00 0.00 67 1013.3
20260506234004 80 205 3.0 10.0 0.00 0.00 0.00 67 1013.4
20260506233505 81 226 6.0 10.0 0.00 0.00 0.00 66 1013.4
20260506233012 81 138 5.0 13.0 0.00 0.00 0.00 66 1013.4
20260506232508 81 190 7.0 14.0 0.00 0.00 0.00 66 1013.4
20260506232007 82 142 6.0 15.0 0.00 0.00 0.00 66 1013.5
20260506231522 82 184 4.0 15.0 0.00 0.00 0.00 65 1013.4
20260506231005 82 268 3.0 12.0 0.00 0.00 0.00 65 1013.4
20260506230506 82 98 2.0 13.0 0.00 0.00 0.00 66 1013.5
20260506230020 83 198 7.0 14.0 0.00 0.00 0.00 65 1013.5
20260506225506 83 194 5.0 16.0 0.00 0.00 0.00 64 1013.5
20260506225003 83 190 7.0 16.0 0.00 0.00 0.00 64 1013.4
20260506224506 83 157 5.0 12.0 0.00 0.00 0.00 63 1013.3
20260506224002 84 238 3.0 12.0 0.00 0.00 0.00 63 1013.2
20260506223503 84 207 5.0 12.0 0.00 0.00 0.00 62 1013.2
20260506223012 84 126 2.0 10.0 0.00 0.00 0.00 62 1013.3
20260506222504 84 225 3.0 16.0 0.00 0.00 0.00 62 1013.3
20260506222004 84 183 7.0 17.0 0.00 0.00 0.00 61 1013.2
20260506221518 84 202 9.0 17.0 0.00 0.00 0.00 61 1013.1
20260506221007 84 246 8.0 16.0 0.00 0.00 0.00 60 1013.1
20260506220507 84 212 4.0 11.0 0.00 0.00 0.00 61 1013.1
20260506220024 84 177 5.0 10.0 0.00 0.00 0.00 60 1013.4
20260506215506 84 196 5.0 12.0 0.00 0.00 0.00 62 1013.6
20260506215008 83 240 7.0 12.0 0.00 0.00 0.00 61 1013.5
20260506214515 83 165 7.0 18.0 0.00 0.00 0.00 61 1013.7
20260506214002 83 206 8.0 18.0 0.00 0.00 0.00 60 1013.7
20260506213503 84 218 3.0 12.0 0.00 0.00 0.00 60 1013.8
20260506213010 84 215 6.0 12.0 0.00 0.00 0.00 60 1013.8
20260506212503 84 175 5.0 12.0 0.00 0.00 0.00 59 1013.6
20260506212003 84 187 7.0 12.0 0.00 0.00 0.00 58 1013.7
20260506211514 84 171 6.0 14.0 0.00 0.00 0.00 57 1014.0
20260506211004 85 140 9.0 14.0 0.00 0.00 0.00 56 1013.8
20260506210507 85 209 6.0 11.0 0.00 0.00 0.00 56 1014.1
20260506210021 85 278 4.0 9.0 0.00 0.00 0.00 56 1014.1
20260506205505 85 170 3.0 9.0 0.00 0.00 0.00 54 1014.1
20260506205005 86 169 5.0 10.0 0.00 0.00 0.00 54 1014.1
20260506204526 86 189 5.0 12.0 0.00 0.00 0.00 53 1014.1
20260506204007 86 210 3.0 13.0 0.00 0.00 0.00 53 1014.2
20260506203503 87 166 3.0 13.0 0.00 0.00 0.00 55 1014.3
20260506203012 87 140 6.0 10.0 0.00 0.00 0.00 53 1014.3
20260506202504 87 152 4.0 14.0 0.00 0.00 0.00 52 1014.3
20260506202004 88 257 2.0 14.0 0.00 0.00 0.00 52 1014.4
20260506201513 88 190 3.0 9.0 0.00 0.00 0.00 52 1014.4
20260506201004 88 204 3.0 9.0 0.00 0.00 0.00 51 1014.4
20260506200503 87 229 2.0 7.0 0.00 0.00 0.00 52 1014.4
20260506200018 87 122 0.0 9.0 0.00 0.00 0.00 54 1014.5
20260506195504 86 192 5.0 9.0 0.00 0.00 0.00 51 1014.8
20260506195004 87 171 5.0 9.0 0.00 0.00 0.00 52 1014.9
20260506194524 87 218 5.0 9.0 0.00 0.00 0.00 51 1015.0
20260506194012 87 192 4.0 10.0 0.00 0.00 0.00 53 1015.0
20260506193509 87 207 4.0 10.0 0.00 0.00 0.00 50 1015.1
20260506193031 87 276 2.0 7.0 0.00 0.00 0.00 52 1015.3
20260506192503 87 228 2.0 8.0 0.00 0.00 0.00 51 1015.3
20260506192003 87 281 3.0 10.0 0.00 0.00 0.00 51 1015.3
20260506191511 87 226 6.0 10.0 0.00 0.00 0.00 49 1015.4
20260506191004 87 196 2.0 8.0 0.00 0.00 0.00 50 1015.5
20260506190508 87 145 2.0 7.0 0.00 0.00 0.00 50 1015.6
20260506190016 87 234 3.0 7.0 0.00 0.00 0.00 51 1015.7
20260506185504 86 160 4.0 7.0 0.00 0.00 0.00 52 1015.7
20260506185011 86 19 2.0 4.0 0.00 0.00 0.00 51 1015.7
20260506184526 86 259 3.0 7.0 0.00 0.00 0.00 53 1015.8
20260506184008 86 188 4.0 10.0 0.00 0.00 0.00 53 1015.9
20260506183508 86 264 1.0 10.0 0.00 0.00 0.00 55 1015.9
20260506183025 86 272 3.0 9.0 0.00 0.00 0.00 54 1016.0
20260506182506 86 166 3.0 9.0 0.00 0.00 0.00 54 1016.0
20260506182007 85 122 3.0 7.0 0.00 0.00 0.00 53 1016.1
20260506181510 85 242 2.0 6.0 0.00 0.00 0.00 56 1015.9
20260506181004 85 125 2.0 8.0 0.00 0.00 0.00 54 1016.0
20260506180503 85 224 4.0 8.0 0.00 0.00 0.00 54 1016.1
20260506180014 85 163 1.0 9.0 0.00 0.00 0.00 55 1016.2
20260506175504 85 165 6.0 9.0 0.00 0.00 0.00 55 1016.2
20260506175007 85 223 1.0 8.0 0.00 0.00 0.00 56 1016.2
20260506174521 84 188 4.0 10.0 0.00 0.00 0.00 56 1016.2
20260506174010 84 304 1.0 10.0 0.00 0.00 0.00 59 1016.3
20260506173503 83 163 3.0 6.0 0.00 0.00 0.00 59 1016.3
20260506173006 83 254 2.0 6.0 0.00 0.00 0.00 60 1016.4
20260506172503 83 9 1.0 8.0 0.00 0.00 0.00 61 1016.4
20260506172003 83 295 1.0 9.0 0.00 0.00 0.00 60 1016.5
20260506171509 83 288 4.0 9.0 0.00 0.00 0.00 59 1016.5
20260506171002 83 281 2.0 8.0 0.00 0.00 0.00 59 1016.6
20260506170505 83 279 3.0 8.0 0.00 0.00 0.00 59 1016.7
20260506170014 84 241 4.0 9.0 0.00 0.00 0.00 58 1016.7
20260506165503 83 209 4.0 9.0 0.00 0.00 0.00 56 1016.8
20260506165005 83 222 2.0 8.0 0.00 0.00 0.00 58 1016.8
20260506164524 82 304 2.0 7.0 0.00 0.00 0.00 58 1016.8
20260506164004 82 178 3.0 8.0 0.00 0.00 0.00 58 1016.8
20260506163510 82 322 4.0 8.0 0.00 0.00 0.00 60 1016.8
20260506163024 81 319 2.0 6.0 0.00 0.00 0.00 61 1016.9
20260506162507 81 277 3.0 6.0 0.00 0.00 0.00 63 1016.9
20260506162006 81 248 3.0 7.0 0.00 0.00 0.00 61 1016.8
20260506161506 81 259 4.0 9.0 0.00 0.00 0.00 65 1016.9
20260506161007 82 283 3.0 9.0 0.00 0.00 0.00 62 1016.8
20260506160502 82 202 4.0 9.0 0.00 0.00 0.00 61 1016.8
20260506160011 82 128 2.0 7.0 0.00 0.00 0.00 64 1016.8
20260506155503 81 5 1.0 7.0 0.00 0.00 0.00 66 1016.7
20260506155003 80 264 4.0 8.0 0.00 0.00 0.00 66 1016.8
20260506154516 80 306 5.0 8.0 0.00 0.00 0.00 65 1016.8
20260506154007 80 299 4.0 8.0 0.00 0.00 0.00 67 1016.7
20260506153507 80 221 3.0 9.0 0.00 0.00 0.00 68 1016.6
20260506153032 80 178 5.0 11.0 0.00 0.00 0.00 69 1016.5
20260506152506 80 254 7.0 11.0 0.00 0.00 0.00 69 1016.5
20260506152010 79 265 2.0 8.0 0.00 0.00 0.00 72 1016.5
20260506151503 79 158 1.0 8.0 0.00 0.00 0.00 73 1016.6
20260506151002 78 292 2.0 6.0 0.00 0.00 0.00 76 1016.5
20260506150504 78 233 0.0 8.0 0.00 0.00 0.00 75 1016.5
20260506150010 78 227 3.0 9.0 0.00 0.00 0.00 74 1016.5
20260506145504 78 190 5.0 9.0 0.00 0.00 0.00 74 1016.4
20260506145003 77 217 1.0 11.0 0.00 0.00 0.00 76 1016.3
20260506144535 77 149 7.0 11.0 0.00 0.00 0.00 75 1016.2
20260506144007 77 190 3.0 10.0 0.00 0.00 0.00 76 1016.2
20260506143504 77 144 2.0 7.0 0.00 0.00 0.00 79 1016.1
20260506143022 76 211 0.0 7.0 0.00 0.00 0.00 81 1016.1
20260506142505 76 178 4.0 16.0 0.00 0.00 0.00 80 1015.9
20260506142005 75 225 1.0 16.0 0.00 0.00 0.00 81 1015.9
20260506141526 75 138 6.0 11.0 0.00 0.00 0.00 81 1015.9
20260506141006 75 155 1.0 6.0 0.00 0.00 0.00 83 1015.9
20260506140503 74 217 1.0 6.0 0.00 0.00 0.00 82 1015.9
20260506140008 74 282 0.0 9.0 0.00 0.00 0.00 83 1015.8
20260506135504 74 193 5.0 10.0 0.00 0.00 0.00 83 1015.8
20260506135004 74 174 5.0 10.0 0.00 0.00 0.00 84 1015.8
20260506134513 73 207 4.0 11.0 0.00 0.00 0.00 85 1015.7
20260506134004 73 194 7.0 12.0 0.00 0.00 0.00 85 1015.7
20260506133504 73 198 5.0 12.0 0.00 0.00 0.00 86 1015.7
20260506133020 72 136 4.0 8.0 0.00 0.00 0.00 88 1015.7
20260506132505 72 167 2.0 8.0 0.00 0.00 0.00 88 1015.7
20260506132006 72 194 1.0 8.0 0.00 0.00 0.00 88 1015.8
20260506131533 72 198 2.0 8.0 0.00 0.00 0.00 88 1015.7
20260506131007 71 193 3.0 9.0 0.00 0.00 0.00 88 1015.7
20260506130510 71 175 4.0 9.0 0.00 0.00 0.00 88 1015.7
20260506130007 71 168 5.0 8.0 0.00 0.00 0.00 89 1015.7
20260506125504 71 196 3.0 7.0 0.00 0.00 0.00 91 1015.7
20260506125003 71 181 2.0 9.0 0.00 0.00 0.00 92 1015.7
20260506124512 70 191 2.0 9.0 0.00 0.00 0.00 92 1015.5
20260506124003 70 165 5.0 9.0 0.00 0.00 0.00 93 1015.3
20260506123504 70 178 5.0 7.0 0.00 0.00 0.00 93 1015.2
20260506123028 70 152 4.0 9.0 0.00 0.00 0.00 94 1015.2
20260506122505 69 170 4.0 9.0 0.00 0.00 0.00 94 1015.1
20260506122012 69 151 4.0 9.0 0.00 0.00 0.00 94 1014.9
20260506121522 69 176 4.0 8.0 0.00 0.00 0.00 94 1014.7
20260506121005 69 178 3.0 9.0 0.00 0.00 0.00 94 1014.7
20260506120507 69 161 5.0 10.0 0.00 0.00 0.00 95 1014.5
20260506120032 69 200 4.0 10.0 0.00 0.00 0.00 95 1014.3
20260506115514 69 203 4.0 8.0 0.00 0.00 0.00 95 1014.2
20260506115003 69 169 3.0 6.0 0.00 0.00 0.00 95 1014.2
20260506114518 69 172 2.0 7.0 0.00 0.00 0.00 95 1014.1
20260506114007 69 174 2.0 7.0 0.00 0.00 0.00 95 1014.1
20260506113504 69 178 4.0 7.0 0.00 0.00 0.00 96 1014.1
20260506113014 69 175 2.0 10.0 0.00 0.00 0.00 96 1014.1
20260506112503 69 161 4.0 10.0 0.00 0.00 0.00 96 1014.1
20260506112008 69 168 4.0 6.0 0.00 0.00 0.00 96 1014.1
20260506111522 69 161 4.0 8.0 0.00 0.00 0.00 96 1014.0
20260506111013 69 191 5.0 8.0 0.00 0.00 0.00 96 1014.0
20260506110513 69 180 4.0 8.0 0.00 0.00 0.00 96 1013.9
20260506110037 68 173 4.0 8.0 0.00 0.00 0.00 96 1013.8
20260506105506 68 182 3.0 10.0 0.00 0.00 0.00 96 1013.7
20260506105008 68 192 5.0 10.0 0.00 0.00 0.00 96 1013.6
20260506104507 68 174 4.0 10.0 0.00 0.00 0.00 96 1013.5
20260506104003 68 190 5.0 11.0 0.00 0.00 0.00 96 1013.6
20260506103503 68 171 6.0 12.0 0.00 0.00 0.00 96 1013.6
20260506103005 68 159 5.0 12.0 0.00 0.00 0.00 96 1013.5
20260506102503 68 175 3.0 10.0 0.00 0.00 0.00 96 1013.5
20260506102003 68 165 4.0 10.0 0.00 0.00 0.00 96 1013.6
20260506101504 68 173 6.0 10.0 0.00 0.00 0.00 96 1013.5
20260506101003 68 211 5.0 8.0 0.00 0.00 0.00 96 1013.5
20260506100504 68 143 3.0 10.0 0.00 0.00 0.00 96 1013.5
20260506100015 68 169 5.0 10.0 0.00 0.00 0.00 96 1013.5
20260506095503 69 181 5.0 10.0 0.00 0.00 0.00 96 1013.5
20260506095003 68 179 6.0 10.0 0.00 0.00 0.00 96 1013.5
20260506094506 68 179 3.0 9.0 0.00 0.00 0.00 96 1013.6
20260506094002 68 167 4.0 7.0 0.00 0.00 0.00 96 1013.6
20260506093503 68 171 3.0 6.0 0.00 0.00 0.00 96 1013.7
20260506093007 68 167 3.0 5.0 0.00 0.00 0.00 96 1013.7
20260506092503 68 203 3.0 7.0 0.00 0.00 0.00 96 1013.7
20260506092003 68 175 4.0 7.0 0.00 0.00 0.00 96 1013.8
20260506091509 68 204 4.0 7.0 0.00 0.00 0.00 96 1013.8
20260506091007 68 185 3.0 6.0 0.00 0.00 0.00 96 1013.7
20260506090506 68 194 3.0 6.0 0.00 0.00 0.00 96 1013.8
20260506090007 68 175 3.0 6.0 0.00 0.00 0.00 96 1013.8
20260506085506 68 202 3.0 5.0 0.00 0.00 0.00 96 1013.8
20260506085003 68 180 2.0 5.0 0.00 0.00 0.00 96 1013.8
20260506084508 68 169 2.0 6.0 0.00 0.00 0.00 96 1013.8
20260506084004 68 191 3.0 6.0 0.00 0.00 0.00 96 1013.9
20260506083504 68 193 1.0 5.0 0.00 0.00 0.00 96 1014.0
20260506083009 68 196 2.0 5.0 0.00 0.00 0.00 96 1014.0
20260506082506 68 186 2.0 6.0 0.00 0.00 0.00 96 1014.0
20260506082004 68 193 2.0 6.0 0.00 0.00 0.00 96 1014.1
20260506081514 68 181 3.0 7.0 0.00 0.00 0.00 96 1014.0
20260506081005 68 216 3.0 7.0 0.00 0.00 0.00 96 1013.9
20260506080504 68 171 3.0 7.0 0.00 0.00 0.00 96 1013.9
20260506073502 68 175 3.0 8.0 0.00 0.00 0.00 96 1014.0
20260506073011 68 163 3.0 6.0 0.00 0.00 0.00 96 1014.0
20260506072503 68 176 4.0 6.0 0.00 0.00 0.00 96 1014.0
20260506072004 68 200 3.0 6.0 0.00 0.00 0.00 96 1014.0
20260506071512 68 179 4.0 7.0 0.00 0.00 0.00 96 1014.1
20260506071003 68 169 4.0 7.0 0.00 0.00 0.00 96 1014.1
20260506070504 68 191 3.0 5.0 0.00 0.00 0.00 96 1014.3
20260506062502 66 209 4.0 5.0 0.00 0.00 0.00 95 1014.4
20260506062006 66 138 1.0 3.0 0.00 0.00 0.00 95 1014.4
20260506061513 66 166 0.0 2.0 0.00 0.00 0.00 95 1014.4
20260506061005 66 163 0.0 4.0 0.00 0.00 0.00 95 1014.4
20260506060508 66 151 1.0 4.0 0.00 0.00 0.00 95 1014.3
20260506051004 66 186 1.0 4.0 0.00 0.00 0.00 94 1014.7
20260506050507 66 193 1.0 3.0 0.00 0.00 0.00 94 1014.7
20260506045003 65 191 0.0 0.0 0.00 0.00 0.00 93 1015.0
20260506044516 65 159 0.0 0.0 0.00 0.00 0.00 92 1015.0
20260506044004 65 178 0.0 0.0 0.00 0.00 0.00 91 1015.1
20260506043505 65 178 0.0 0.0 0.00 0.00 0.00 92 1015.3
20260506043015 65 178 0.0 2.0 0.00 0.00 0.00 92 1015.3
20260506042505 65 178 0.0 2.0 0.00 0.00 0.00 91 1015.4
20260506042009 65 178 0.0 1.0 0.00 0.00 0.00 90 1015.5
20260506041514 66 182 0.0 0.0 0.00 0.00 0.00 90 1015.6
20260506041007 66 182 0.0 0.0 0.00 0.00 0.00 90 1015.5
20260506040503 66 182 0.0 0.0 0.00 0.00 0.00 90 1015.6
20260506040016 66 183 0.0 0.0 0.00 0.00 0.00 89 1015.5
20260506035503 66 196 0.0 0.0 0.00 0.00 0.00 89 1015.7
20260506035009 66 196 0.0 0.0 0.00 0.00 0.00 89 1015.7
20260506034515 66 180 0.0 0.0 0.00 0.00 0.00 89 1015.7
20260506034004 66 180 0.0 0.0 0.00 0.00 0.00 90 1015.5
20260506033507 66 172 0.0 0.0 0.00 0.00 0.00 90 1015.3
20260506033026 65 146 0.0 0.0 0.00 0.00 0.00 90 1015.4
20260506032504 65 196 0.0 0.0 0.00 0.00 0.00 89 1015.6
20260506032005 66 196 0.0 0.0 0.00 0.00 0.00 89 1015.5
20260506031523 66 196 0.0 0.0 0.00 0.00 0.00 88 1015.4
20260506031004 66 196 0.0 0.0 0.00 0.00 0.00 88 1015.5
20260506030506 66 196 0.0 0.0 0.00 0.00 0.00 88 1015.5
20260506030014 66 196 0.0 0.0 0.00 0.00 0.00 87 1015.4
20260506025504 66 196 0.0 0.0 0.00 0.00 0.00 87 1015.4
20260506025003 67 196 0.0 0.0 0.00 0.00 0.00 88 1015.3
20260506024524 67 196 0.0 0.0 0.00 0.00 0.00 87 1015.3
20260506024003 67 201 0.0 0.0 0.00 0.00 0.00 87 1015.2
20260506023503 67 201 0.0 0.0 0.00 0.00 0.00 86 1015.2
20260506023015 67 201 0.0 0.0 0.00 0.00 0.00 86 1015.1
20260506022507 67 201 0.0 0.0 0.00 0.00 0.00 86 1015.2
20260506022011 68 201 0.0 0.0 0.00 0.00 0.00 85 1015.2
20260506021516 68 201 0.0 0.0 0.00 0.00 0.00 85 1015.2
20260506021003 68 201 0.0 0.0 0.00 0.00 0.00 84 1015.2
20260506020504 68 201 0.0 0.0 0.00 0.00 0.00 84 1015.2
20260506020017 69 201 0.0 0.0 0.00 0.00 0.00 83 1015.2
20260506015504 69 201 0.0 0.0 0.00 0.00 0.00 82 1015.3
20260506015005 69 201 0.0 0.0 0.00 0.00 0.00 82 1015.3
20260506014518 70 201 0.0 0.0 0.00 0.00 0.00 81 1015.3
20260506014005 70 201 0.0 0.0 0.00 0.00 0.00 80 1015.2
20260506013508 70 201 0.0 0.0 0.00 0.00 0.00 80 1015.2
20260506013020 70 201 0.0 0.0 0.00 0.00 0.00 79 1015.1